Back to catalog

NOAA 16 DEB

AlivePO
NORAD 41057·DEBRIS·🇺🇸 United States

Launched Sep 21, 2000 from Vandenberg Space Force Base

Loading…

Next Passes (next 24 hours)

TLE

FreshSource: Space-Track

Epoch: Sep 14, 2026, 01:07 UTC

1 41057U 00055Q   26257.04674775  .00003697  00000-0  10799-2 0  9992
2 41057  98.9583  66.3512 0017573 272.4838  87.4339 14.44597200561395

Track NOAA 16 DEB in real time with AllMySat

Download on the App Store